Location: Young's Pond
(41.2695°N, 72.7766°W)
Time: 06:38:14
(UTC-04:00)

Daily predictions for brighter satellites

Satellite Brightness Start Highest point End
(mag) Time Altitude Azimuth Time Altitude Azimuth Time Altitude Azimuth
BREEZE-M DEB (TANK) 4.4 20:41:03 10° WNW 20:44:56 46° SSW 20:57:48 10° SE
Cosmos 1939 Rocket 3.7 20:42:43 10° SE 20:46:33 37° ENE 20:50:23 10° N
ATLAS 3B R/B 4.3 20:44:35 10° SE 20:48:30 15° ESE 20:52:23 10° ENE
APEX 4.0 20:47:20 10° NNW 20:51:15 52° ENE 20:56:19 10° SE
Resurs 01 Rocket 4.4 20:49:14 10° SW 20:51:51 15° W 20:54:28 10° NW
Cosmos 2228 3.4 20:48:53 10° N 20:53:11 48° E 20:57:26 10° SSE
Cosmos 2098 Rocket 4.4 20:51:41 10° NNW 20:54:47 33° W 20:58:29 10° SSW
Cosmos 1743 3.1 20:50:59 10° NNW 20:54:48 66° W 20:58:35 10° S
Lacrosse 5 rocket 2.6 20:51:38 10° WSW 20:55:19 44° NW 20:59:14 10° NE
Cosmos 1025 Rocket 3.9 20:51:16 10° SSW 20:55:34 56° W 20:59:54 10° N
Meteor 1-23 Rocket 4.2 20:50:33 10° S 20:56:10 75° E 21:01:53 10° NNE
Cosmos 2251 Rocket 4.1 20:52:17 10° SSW 20:57:34 65° WNW 21:02:54 10° NNE
Cosmos 1892 Rocket 4.0 20:59:19 10° SSW 21:03:43 67° W 21:08:12 10° N
ERS-1 Rocket 3.1 20:58:50 10° SSE 21:03:51 84° WSW 21:08:54 10° NNW
Cosmos 1603 4.1 20:59:38 10° S 21:04:52 42° ESE 21:10:08 10° NE
USA 234 3.8 20:59:18 10° ESE 21:05:36 51° NNE 21:11:56 10° NW
Envisat 3.2 21:02:49 10° SSE 21:07:45 55° ENE 21:12:43 10° N
Meteor 2-9 Rocket 4.3 21:03:56 10° N 21:09:38 82° E 21:15:27 10° S
SJ-11-01 4.4 21:05:19 10° S 21:09:58 81° WSW 21:14:40 10° NNW
USA 186 4.1 21:11:31 10° SW 21:13:38 18° W 21:15:40 10° NW
Abrixas rocket 2.4 21:12:31 10° WNW 21:15:55 64° SSW 21:18:26 17° SE
Meteor 2-4 Rocket 4.1 21:10:05 10° SSW 21:15:55 75° W 21:21:53 10° N
Okean 2 3.9 21:14:02 10° SSW 21:18:11 64° W 21:22:21 10° N
BREEZE M DEB (TANK) 1.9 21:17:32 10° WNW 21:20:22 52° N 21:21:57 14° E
UNK 4.5 21:16:20 10° NNE 21:21:35 49° E 21:27:04 10° S
Tsikada Rocket 4.1 21:18:12 10° S 21:24:31 64° E 21:30:50 10° NNE
Timation 1 Rocket 4.4 21:18:58 10° NNW 21:25:02 84° ENE 21:30:11 15° SSE
Cosmos 1943 4.1 21:25:39 13° SSE 21:29:37 28° ESE 21:34:22 10° NE
YAOGAN 6 3.5 21:27:50 19° SE 21:30:00 36° ENE 21:33:27 10° N
ISS -2.6 21:30:48 10° SSW 21:33:44 31° SE 21:36:40 10° ENE
PSLV R/B 3.6 21:30:19 10° WSW 21:33:44 48° SSE 21:36:28 15° E
Cosmos 1943 Rocket 4.2 21:34:57 10° NNE 21:38:04 15° NE 21:41:11 10° E
CZ-2C R/B 3.7 21:38:48 10° WSW 21:39:30 11° W 21:40:11 10° WNW
Cosmos 1461 3.0 21:35:15 10° NW 21:39:32 73° WSW 21:42:09 21° SSE
MetOp-A 4.1 21:35:19 16° SSE 21:39:39 74° ENE 21:45:01 10° N
SPOT 5 2.6 21:36:20 14° S 21:40:04 82° WSW 21:44:26 10° NNW
Cosmos 1992 Rocket 4.4 21:39:56 10° N 21:45:00 48° ENE 21:48:02 23° SE
Cosmos 1602 Rocket 4.0 21:42:22 10° SSW 21:46:48 64° W 21:51:15 10° N
CZ-4 SHROUD 4.2 21:46:44 16° SSW 21:48:59 44° W 21:52:02 10° NNW
H-2A R/B 3.3 21:48:11 18° ESE 21:50:34 25° ENE 21:54:39 10° N
SL-08 RB Rocket 4.3 21:49:12 24° SE 21:51:27 42° ENE 21:55:44 10° N
Cosmos 1825 Rocket 4.0 21:49:41 25° SSE 21:51:55 45° E 21:56:10 10° NNE
Cosmos 1812 Rocket 3.7 21:53:04 10° NNW 21:57:27 71° W 22:00:27 20° S
SPOT 1/Viking Rocket 3.5 21:55:43 23° SSE 21:58:59 79° ENE 22:04:09 10° N
Geosat 4.3 21:56:43 10° NE 22:01:32 44° ESE 22:04:15 23° S
Terra 3.0 22:00:40 22° ESE 22:02:32 29° ENE 22:06:37 10° N
Cosmos 1190 Rocket 4.3 22:00:19 24° SSE 22:03:10 46° ESE 22:08:15 10° NNE
Cosmos 1634 Rocket 4.0 21:59:09 10° N 22:05:19 67° E 22:08:55 26° SSE
USA 245 4.3 22:05:43 22° S 22:09:52 83° WSW 22:15:11 10° NNW
H-2A R/B 4.5 22:07:15 10° SW 22:10:11 18° W 22:13:10 10° NW
SeaSat 1 3.3 22:07:21 19° S 22:10:33 44° WSW 22:15:16 10° NW
Atlas Centaur 2 3.5 22:04:33 10° SW 22:11:37 37° S 22:15:35 25° SE
ARGOS 3.1 22:10:34 27° SSE 22:13:36 85° ENE 22:19:03 10° NNW
Cosmos 2369 Rocket 2.3 22:08:12 10° NNW 22:13:51 63° ENE 22:16:29 31° SE
CZ-4C R/B 3.6 22:12:56 38° SE 22:14:24 63° ENE 22:18:29 10° N
DEBRIS 3.8 22:12:27 10° WNW 22:15:21 21° SW 22:15:34 21° SW
CZ-4B R/B 3.9 22:12:26 10° N 22:17:27 64° WNW 22:22:34 10° SSW
NOAA 11 4.1 22:22:44 31° S 22:25:29 83° WSW 22:30:57 10° NNW
COSMOS 2455 3.2 22:21:55 10° SW 22:27:51 64° WNW 22:33:52 10° NNE
Cosmos 2279 Rocket 4.1 22:23:43 10° N 22:29:55 61° E 22:32:31 35° SE
Cosmos 1953 3.5 22:30:44 10° NNE 22:34:14 29° ENE 22:34:19 29° ENE
Cosmos 1953 Rocket 3.6 22:35:34 37° SSW 22:37:14 77° W 22:41:42 10° N
Cosmos 2263 4.2 22:31:55 10° NNW 22:37:33 71° ENE 22:39:31 41° SE
Meteor 1-22 Rocket 4.2 22:32:00 10° N 22:37:35 86° W 22:40:02 36° S
ATLAS 3B R/B 2.9 22:30:28 10° SSW 22:38:09 77° ESE 22:45:42 10° NE
COSMOS 2406 4.3 22:39:06 27° E 22:39:06 27° E 22:43:39 10° NE
IGS 5A 3.4 22:43:56 59° ESE 22:44:27 67° ENE 22:48:35 10° N
USA 234 3.6 22:45:57 34° S 22:48:35 51° SW 22:54:58 10° NW
Cosmos 407 Rocket 3.5 22:49:26 31° SSW 22:52:02 81° WNW 22:57:18 10° NNE
SL-27 R/B 4.2 22:55:23 22° NE 22:55:23 22° NE 22:56:50 10° NE
Cosmos 1346 Rocket 3.7 22:56:00 33° WSW 22:57:11 43° WNW 23:00:56 10° N
Cosmos-2242 2.9 22:53:37 10° N 22:58:02 71° E 22:58:21 68° ESE
SL-24 R/B 4.5 22:54:14 10° N 22:59:09 78° W 23:00:48 44° SSW
SL-23 DEB 4.3 22:53:29 10° SW 23:01:53 19° ENE 23:02:50 10° ENE
Lacrosse 4 Rocket 1.5 22:59:12 51° WSW 23:00:04 68° WNW 23:04:09 10° NNE
ISS -1.6 23:07:09 10° W 23:10:09 33° NNW 23:13:10 10° NE
Cosmos 1954 Rocket 3.9 23:09:47 54° SSW 23:11:02 86° ESE 23:16:23 10° NNE
USA 238 DEB 3.8 23:10:57 44° SSE 23:12:49 56° ESE 23:19:42 10° NE
USA 238 3.8 23:11:06 45° SSE 23:12:54 56° ESE 23:19:47 10° NE
Cosmos 1943 4.3 23:08:05 10° SW 23:13:26 42° WNW 23:18:50 10° N
Cosmos 1842 3.5 23:13:33 61° W 23:13:36 61° W 23:17:30 10° N
CARTOSAT-1 4.2 23:14:29 44° WSW 23:14:57 46° W 23:19:08 10° NNW
CZ-4B R/B 4.1 23:17:06 13° ENE 23:17:06 13° ENE 23:18:31 10° NE
Cosmos 1544 4.4 23:14:45 10° N 23:17:29 34° NE 23:17:29 34° NE
Cosmos 1758 3.4 23:15:08 10° N 23:19:02 78° NW 23:19:02 78° NW
Cosmos 1943 Rocket 2.0 23:17:01 10° NNW 23:22:37 89° ENE 23:23:31 64° SSE
Spot 4 4.1 23:22:16 51° SW 23:22:52 55° W 23:27:34 10° NNW
ALOS 2 4.3 23:25:26 22° ENE 23:25:34 22° ENE 23:28:58 10° NNE
Cosmos 1741 Rocket 4.1 23:27:52 59° ESE 23:27:52 59° ESE 23:33:05 10° NNE
Meteor 2-5 Rocket 4.2 23:28:42 45° ESE 23:29:08 46° E 23:34:40 10° NNE
H-2A R/B 2.9 23:28:49 34° WSW 23:29:47 37° W 23:34:27 10° NNW
Cosmos 1092 Rocket 3.9 23:33:02 57° SSE 23:34:20 75° E 23:40:38 10° N
Cosmos 1656 Rocket 3.9 23:34:10 10° NNW 23:39:49 61° ENE 23:40:42 54° ESE
Terra 3.1 23:39:33 29° WSW 23:40:12 30° W 23:44:22 10° NW
Cosmos 1842 Rocket 3.7 23:37:31 10° NNW 23:41:34 70° NW 23:41:34 70° NW
Cosmos 1570 Rocket 3.9 23:37:48 10° NNW 23:43:11 85° WSW 23:43:34 77° S
Cosmos 1733 4.4 23:42:39 10° N 23:45:24 38° NNE 23:45:24 38° NNE
Cosmos 1850 Rocket 3.8 23:46:11 81° SSW 23:46:28 89° E 23:51:43 10° NNE
Nadezhda 4 Rocket 4.2 23:45:01 45° SW 23:46:55 66° W 23:53:14 10° N
CZ-4C R/B 3.3 23:54:52 30° E 23:54:52 30° E 23:58:41 10° NE
